Rogers City, MI

10:21 AM EDT on July 28, 2017 (GMT -0400)
Presque Isle County

Weather History for KPZQ - January, 2014

Change the Weather History Date:

Tuesday, January 7, 2014

  Actual Average (KAPN) Record (KAPN)
Temperature  
Mean Temperature 2 °F -  
Max Temperature 8 °F 25 °F 48 °F (1949)
Min Temperature -5 °F 9 °F -13 °F (1968)
Degree Days  
Heating Degree Days 64    
Moisture  
Dew Point -2 °F    
Average Humidity 80    
Maximum Humidity 85    
Minimum Humidity 67    
Precipitation  
Precipitation 0.00 in - - ()
Sea Level Pressure  
Sea Level Pressure 29.89 in    
Wind  
Wind Speed 11 mph (WSW)    
Max Wind Speed 21 mph    
Max Gust Speed 36 mph    
Visibility 5 miles    
Events Snow    
Averages and records for this station are not official NWS values.
T = Trace of Precipitation, MM = Missing Value Source: NWS Daily Summary

Daily Weather History Graph

Daily Weather History Graph

Search for Another Location

Airport or City:

Trip Planner

Search our weather history database for the weather conditions in past years. The results will help you decide how hot, cold, wet, or windy it might be!

Date:

Astronomy

Jan. 07, 2014 Rise Set
Actual Time 8:14 AM EST 5:09 PM EST
Civil Twilight 7:40 AM EST 5:42 PM EST
Nautical Twilight 7:03 AM EST 6:19 PM EST
Astronomical Twilight 6:27 AM EST 6:55 PM EST
Moon 11:40 AM EST (1/7) 12:00 AM EST (1/7)
Length of Visible Light 10h 01m
Length of Day
8h 54m
Waxing Crescent, 45% of the Moon is Illuminated
Jan 7
Waxing Crescent
Jan 7
First Quarter
Jan 15
Full
Jan 24
Last Quarter
Jan 30
New

Hourly Weather History & Observations

Time (EST) Temp. Windchill Dew Point Humidity Pressure Visibility Wind Dir Wind Speed Gust Speed Precip Events Conditions
12:01 AM -0.4 °F -17.6 °F -7.6 °F 72% 29.78 in 10.0 mi WSW 11.5 mph 18.4 mph N/A   Scattered Clouds
12:21 AM -0.4 °F -17.6 °F -5.8 °F 78% 29.78 in 2.5 mi WSW 11.5 mph - N/A Snow Light Snow
12:41 AM -0.4 °F -20.5 °F -5.8 °F 78% 29.78 in 3.0 mi WSW 16.1 mph 23.0 mph N/A   Haze
1:01 AM -2.2 °F -22.2 °F -7.6 °F 78% 29.78 in 5.0 mi WSW 15.0 mph 20.7 mph N/A   Haze
1:21 AM -2.2 °F -23.5 °F -7.6 °F 78% 29.78 in 5.0 mi WSW 17.3 mph 21.9 mph N/A   Haze
1:41 AM -2.2 °F -20.7 °F -7.6 °F 78% 29.78 in 5.0 mi WSW 12.7 mph 21.9 mph N/A   Haze
2:01 AM -2.2 °F -20.7 °F -7.6 °F 78% 29.78 in 4.0 mi WSW 12.7 mph 18.4 mph N/A   Haze
2:21 AM -4.0 °F -22.1 °F -7.6 °F 85% 29.79 in 5.0 mi SW 11.5 mph - N/A   Clear
2:45 AM -4.0 °F -20.2 °F -7.6 °F 85% 29.79 in 4.0 mi SW 9.2 mph - N/A   Haze
3:01 AM -4.0 °F -20.2 °F -7.6 °F 85% 29.79 in 3.0 mi SSW 9.2 mph - N/A Snow Light Snow
3:21 AM -2.2 °F -18.9 °F -7.6 °F 78% 29.79 in 3.0 mi SW 10.4 mph - N/A   Overcast
3:41 AM -2.2 °F -19.9 °F -7.6 °F 78% 29.79 in 4.0 mi SW 11.5 mph - N/A   Overcast
4:01 AM -2.2 °F -16.8 °F -7.6 °F 78% 29.79 in 3.0 mi SSW 8.1 mph - N/A   Overcast
4:22 AM -5.8 °F -21.2 °F -9.4 °F 84% 29.79 in 3.0 mi SSW 8.1 mph - N/A Snow Light Snow
4:41 AM -5.8 °F -21.2 °F -9.4 °F 84% 29.80 in 2.5 mi SSW 8.1 mph - N/A Snow Light Snow
5:08 AM -4.0 °F -17.8 °F -9.4 °F 78% 29.80 in 3.0 mi SW 6.9 mph - N/A   Overcast
5:21 AM -5.8 °F -18.4 °F -9.4 °F 84% 29.80 in 4.0 mi SW 5.8 mph - N/A   Overcast
5:41 AM -2.2 °F -16.8 °F -5.8 °F 85% 29.80 in 10.0 mi WSW 8.1 mph - N/A   Scattered Clouds
6:01 AM -2.2 °F -16.8 °F -7.6 °F 78% 29.80 in 10.0 mi WSW 8.1 mph - N/A   Clear
6:21 AM -2.2 °F -16.8 °F -7.6 °F 78% 29.80 in 10.0 mi WSW 8.1 mph - N/A   Clear
6:41 AM -2.2 °F -19.9 °F -5.8 °F 85% 29.80 in 10.0 mi WSW 11.5 mph - N/A   Scattered Clouds
7:04 AM -0.4 °F -18.4 °F -5.8 °F 78% 29.80 in 5.0 mi WSW 12.7 mph 19.6 mph N/A   Haze
7:20 AM -0.4 °F -16.7 °F -5.8 °F 78% 29.80 in 4.0 mi WSW 10.4 mph 17.3 mph N/A Snow Light Snow
7:41 AM -0.4 °F -14.7 °F -4.0 °F 85% 29.80 in 7.0 mi WSW 8.1 mph 17.3 mph N/A   Mostly Cloudy
8:01 AM -0.4 °F -17.6 °F -4.0 °F 85% 29.80 in 10.0 mi SW 11.5 mph - N/A   Scattered Clouds
8:20 AM -0.4 °F -16.7 °F -4.0 °F 85% 29.81 in 3.0 mi WSW 10.4 mph 17.3 mph N/A   Overcast
8:41 AM -0.4 °F -15.7 °F -4.0 °F 85% 29.81 in 4.0 mi SW 9.2 mph 18.4 mph N/A   Mostly Cloudy
9:01 AM 1.4 °F -12.5 °F -4.0 °F 78% 29.82 in 2.0 mi SW 8.1 mph - N/A Snow Light Snow
9:21 AM 1.4 °F -16.1 °F -2.2 °F 85% 29.82 in 2.0 mi SW 12.7 mph - N/A Snow Light Snow
9:41 AM 3.2 °F -13.1 °F -2.2 °F 78% 29.82 in 3.0 mi SW 11.5 mph 18.4 mph N/A   Overcast
10:01 AM 3.2 °F -15.3 °F -0.4 °F 85% 29.83 in 2.5 mi SW 15.0 mph - N/A   Haze
10:20 AM 5.0 °F -10.8 °F -0.4 °F 78% 29.84 in 1.0 mi WSW 11.5 mph 20.7 mph N/A Snow Light Snow
10:40 AM 5.0 °F -11.6 °F -0.4 °F 78% 29.84 in 1.0 mi SW 12.7 mph 17.3 mph N/A Snow Light Snow
10:59 AM 5.0 °F -13.6 °F -0.4 °F 78% 29.84 in 1.0 mi SW 16.1 mph - N/A Snow Light Snow
11:21 AM 5.0 °F -12.3 °F -0.4 °F 78% 29.84 in 0.8 mi SW 13.8 mph 21.9 mph N/A Snow Light Snow
11:41 AM 5.0 °F -9.1 °F -0.4 °F 78% 29.84 in 0.8 mi SW 9.2 mph 17.3 mph N/A Snow Light Snow
12:01 PM 5.0 °F -10.0 °F -0.4 °F 78% 29.84 in 0.8 mi SW 10.4 mph 16.1 mph N/A Snow Light Snow
12:21 PM 5.0 °F -6.9 °F 1.4 °F 85% 29.84 in 1.0 mi WSW 6.9 mph - N/A Snow Light Snow
12:41 PM 8.6 °F -7.7 °F 1.4 °F 73% 29.84 in 1.5 mi West 13.8 mph 28.8 mph N/A   Haze
1:01 PM 8.6 °F -10.5 °F 1.4 °F 73% 29.85 in 2.0 mi West 19.6 mph 28.8 mph N/A Snow Light Snow
1:21 PM 6.8 °F -13.4 °F -0.4 °F 72% 29.86 in 1.0 mi West 20.7 mph 29.9 mph N/A Snow Light Snow
1:41 PM 8.6 °F -9.5 °F -0.4 °F 67% 29.86 in 0.8 mi West 17.3 mph 35.7 mph N/A Snow Light Snow
2:01 PM 6.8 °F -9.3 °F 1.4 °F 79% 29.87 in 2.0 mi West 12.7 mph 28.8 mph N/A   Haze
2:19 PM 6.8 °F -10.7 °F 1.4 °F 79% 29.88 in 1.2 mi WSW 15.0 mph 28.8 mph N/A   Haze
2:39 PM 8.6 °F -5.5 °F 3.2 °F 79% 29.89 in 1.8 mi WSW 10.4 mph 21.9 mph N/A Snow Light Snow
2:59 PM 6.8 °F -10.7 °F 3.2 °F 85% 29.90 in 1.5 mi WSW 15.0 mph 23.0 mph N/A Snow Light Snow
3:23 PM 8.6 °F -6.3 °F 3.2 °F 79% 29.91 in 2.5 mi WSW 11.5 mph 20.7 mph N/A   Haze
3:39 PM 8.6 °F -8.3 °F 3.2 °F 79% 29.92 in 7.0 mi WSW 15.0 mph 20.7 mph N/A   Overcast
3:59 PM 6.8 °F -11.3 °F 1.4 °F 79% 29.92 in 10.0 mi West 16.1 mph 24.2 mph N/A   Scattered Clouds
4:19 PM 6.8 °F -10.7 °F -0.4 °F 72% 29.93 in 7.0 mi WSW 15.0 mph 23.0 mph N/A   Clear
4:39 PM 6.8 °F -9.3 °F -0.4 °F 72% 29.94 in 10.0 mi WSW 12.7 mph 19.6 mph N/A   Clear
4:59 PM 5.0 °F -10.0 °F -0.4 °F 78% 29.96 in 10.0 mi WSW 10.4 mph 17.3 mph N/A   Clear
5:19 PM 5.0 °F -10.0 °F -0.4 °F 78% 29.97 in 10.0 mi WSW 10.4 mph - N/A   Clear
5:39 PM 5.0 °F -8.1 °F 1.4 °F 85% 29.98 in 10.0 mi WSW 8.1 mph - N/A   Clear
5:59 PM 5.0 °F -9.1 °F 1.4 °F 85% 29.99 in 10.0 mi WSW 9.2 mph - N/A   Scattered Clouds
6:19 PM 5.0 °F -9.1 °F 1.4 °F 85% 29.99 in 10.0 mi West 9.2 mph - N/A   Scattered Clouds
6:40 PM 5.0 °F -10.0 °F 1.4 °F 85% 30.00 in 10.0 mi WSW 10.4 mph 16.1 mph N/A   Scattered Clouds
6:59 PM 5.0 °F -9.1 °F 1.4 °F 85% 30.01 in 10.0 mi WSW 9.2 mph 16.1 mph N/A   Scattered Clouds
7:19 PM 6.8 °F -3.5 °F 1.4 °F 79% 30.02 in 10.0 mi WSW 5.8 mph - N/A   Mostly Cloudy
7:22 PM 6.3 °F -6.5 °F 1.4 °F 80% 30.02 in 10.0 mi West 8.1 mph - N/A   Mostly Cloudy
7:35 PM 6.6 °F -5.0 °F 1.9 °F 81% 30.02 in 7.0 mi West 6.9 mph - N/A   Overcast
7:55 PM 6.6 °F -2.2 °F 2.3 °F 82% 30.03 in 7.0 mi West 4.6 mph - N/A Snow Light Snow
8:15 PM 6.8 °F -2.0 °F 2.7 °F 83% 30.04 in 4.0 mi West 4.6 mph - N/A Snow Light Snow
8:35 PM 6.8 °F -0.1 °F 2.8 °F 84% 30.06 in 4.0 mi West 3.5 mph - N/A Snow Light Snow
8:54 PM 6.8 °F -0.1 °F 2.5 °F 82% 30.07 in 3.0 mi WNW 3.5 mph - N/A Snow Light Snow
9:15 PM 6.4 °F -0.5 °F 2.3 °F 83% 30.07 in 5.0 mi WNW 3.5 mph - N/A Snow Light Snow
9:35 PM 5.9 °F -3.0 °F 2.3 °F 85% 30.08 in 7.0 mi West 4.6 mph - N/A Snow Light Snow
9:54 PM 6.3 °F -4.1 °F 2.3 °F 84% 30.09 in 7.0 mi West 5.8 mph - N/A   Overcast
10:15 PM 6.4 °F -5.2 °F 1.9 °F 82% 30.09 in 10.0 mi West 6.9 mph - N/A   Overcast
10:35 PM 6.3 °F -5.4 °F 1.4 °F 80% 30.09 in 10.0 mi West 6.9 mph - N/A   Overcast
10:55 PM 5.9 °F -5.8 °F 1.4 °F 82% 30.10 in 10.0 mi West 6.9 mph - N/A   Overcast
11:15 PM 5.9 °F -5.8 °F 1.4 °F 82% 30.10 in 10.0 mi West 6.9 mph - N/A   Overcast
11:34 PM 5.9 °F -7.0 °F 1.4 °F 82% 30.10 in 10.0 mi West 8.1 mph - N/A   Overcast
11:55 PM 5.9 °F -7.0 °F 1.4 °F 82% 30.11 in 10.0 mi West 8.1 mph - N/A   Overcast